[[[{"header":{"parameterUnit":"kt","parameterCategory":2,"dx":1,"dy":1,"la1":30.253999710083008,"la2":30.299108505249023,"lo1":-89.0895004272461,"lo2":-89.04439544677734,"nx":28,"ny":28,"refTime":"2022-10-01T21:00:00:Z","depth":"0","parameterNumber":2,"parameterNumberName":"U-component_of_CURRENTS"},"data":[0.9116,0.9342,0.9328,0.9316,0.928,0.9027,0.8884,0.8564,0.8448,0.7945,0.7607,0.7539,0.7294,0.6794,0.614,0.5981,0.5609,0.5295,0.5603,0.6305,0.6441,0.6571,0.6126,0.528,0.5279,0.3897,0.3887,0.3879,0.884,0.896,0.9155,0.9224,0.9235,0.9202,0.9194,0.8979,0.889,0.903,0.9078,0.8709,0.8398,0.8205,0.7644,0.7329,0.702,0.712,0.6506,0.6457,0.7646,0.7206,0.6575,0.6575,0.6575,0.6576,0.6576,0.6577,0.8408,0.8605,0.8755,0.8913,0.9019,0.9022,0.8989,0.9099,0.9196,0.9226,0.9612,0.9597,0.9487,0.9596,0.96,0.8958,0.9245,0.8592,0.8662,0.8479,0.7903,0.8997,0.9116,0.9124,0.9131,0.9138,0.9144,0,0.8073,0.8077,0.8299,0.8477,0.8621,0.8727,0.8889,0.8983,0.9122,0.9302,0.9616,0.9805,1.0184,1.0085,1.0304,1.0378,0.9872,1.0301,1.0032,0.8615,0.8035,0.7755,0.9118,0.9476,0.9487,0.9495,0.9501,0.9506,0.7595,0.7765,0.7951,0.8077,0.8181,0.8356,0.85,0.8592,0.8781,0.913,0.9363,0.978,1.0035,1.0651,1.07,1.0991,1.0705,1.0551,1.0149,0.9625,0.9541,0.9229,0.9,0.9624,0.9609,0.9597,0.9587,0,0.7332,0.7388,0.7716,0.7892,0.7921,0.8116,0.8285,0.8495,0.8622,0.8973,0.9089,0.9441,0.9873,1.0143,1.074,1.0725,1.073,1.1124,1.0286,1.0155,0.9593,0.9523,0.9602,0.9362,1.1207,1.1204,1.1202,0,0.6999,0.7243,0.7338,0.7518,0.7779,0.7872,0.8142,0.8284,0.8511,0.8772,0.8892,0.9176,0.9512,0.9899,1.0096,1.0436,1.0719,1.0464,1.0443,0.9794,0.97,0.9404,0.9295,1.0897,1.0892,1.0888,1.0884,0,0.6703,0.6996,0.7261,0.7359,0.7622,0.774,0.7847,0.8054,0.8227,0.853,0.8667,0.905,0.9268,0.9626,0.9847,0.9696,1.05,1.0301,1.0251,1.0226,0.9736,0.9638,0.9813,1.0877,1.0876,1.0874,1.0873,0,0.6526,0.6694,0.7018,0.7306,0.7374,0.7509,0.7761,0.7926,0.8173,0.8255,0.8465,0.8543,0.893,0.8772,0.939,0.913,0.9345,0.9487,0.9511,0.9204,0.8902,0.8768,0.9152,0.8768,0.9595,0.9584,0.9575,0,0.6308,0.6607,0.6652,0.6957,0.7148,0.717,0.7361,0.751,0.7611,0.7834,0.7966,0.8199,0.8094,0.8178,0.8434,0.8659,0.8957,0.8558,0.9038,0.9054,0.8742,0.9226,0.8539,0.9014,0.9441,0.9455,0.9465,0,0.6127,0.6341,0.6369,0.653,0.6671,0.6754,0.6947,0.715,0.7299,0.74,0.7663,0.7886,0.7881,0.7961,0.7961,0.8199,0.8718,0.8117,0.8126,0.8353,0.9385,0.9071,0.9131,0.8705,0.8722,0.8735,0.9358,0,0.6144,0.6233,0.6277,0.6429,0.6499,0.6611,0.6706,0.6783,0.681,0.6901,0.7166,0.7232,0.7397,0.7432,0.741,0.7836,0.7786,0.7689,0.7537,0.7858,0.8069,0.8154,0.7074,0.7069,0.7064,0.7061,0,0,0.6011,0.6079,0.602,0.615,0.6239,0.6192,0.6349,0.6422,0.6511,0.6602,0.6537,0.6807,0.6822,0.7121,0.7252,0.7184,0.7319,0.7108,0.7638,0.7702,0.7761,0.7983,0.8069,0.7053,0.7051,0.705,0.7048,0,0.601,0.5926,0.5986,0.605,0.6127,0.6164,0.6178,0.6242,0.6325,0.6435,0.6488,0.6614,0.664,0.6801,0.6859,0.7094,0.7102,0.7077,0.728,0.7588,0.7657,0.7719,0.795,0.8031,0.7038,0.7038,0.7039,0,0.597,0.5975,0.5952,0.5977,0.6009,0.6125,0.6058,0.6115,0.6255,0.6139,0.6307,0.634,0.6388,0.6549,0.6596,0.6484,0.6889,0.6628,0.6652,0.6735,0.7048,0.7126,0.7195,0.6317,0.6315,0.6313,0,0,0.5999,0.598,0.6003,0.5976,0.6002,0.603,0.6058,0.6099,0.6139,0.6165,0.6179,0.6221,0.6336,0.6333,0.6415,0.6443,0.6556,0.6545,0.6579,0.6607,0.6704,0.7023,0.7096,0.6306,0.6305,0.6305,0,0,0.6019,0.6007,0.5995,0.5958,0.6015,0.6059,0.6096,0.6098,0.6152,0.6157,0.6138,0.6143,0.629,0.6212,0.6123,0.6375,0.6232,0.6246,0.6417,0.6457,0.649,0.661,0.6063,0,0,0,0,0,0.6024,0.5998,0.5984,0.5978,0.597,0.6036,0.6048,0.6111,0.6084,0.6137,0.6166,0.6103,0.6235,0.6154,0.6138,0.6274,0.6211,0.6227,0.6243,0.6477,0.6521,0.6559,0,0,0,0,0,0,0.6022,0.6008,0.5988,0.6008,0.601,0.6033,0.604,0.6058,0.6087,0.6099,0.6103,0.6103,0.6112,0.6155,0.6142,0.6276,0.6067,0.6217,0.6231,0.6244,0.6492,0.6529,0.656,0,0,0,0,0,0.602,0.601,0.5965,0.6013,0.6014,0.6087,0.6043,0.6058,0.6087,0.6091,0.6096,0.6138,0.611,0.6101,0.6146,0.6287,0.6076,0.6071,0.6226,0.6238,0.6248,0.651,0,0,0,0,0,0,0.6019,0.6039,0.5969,0.5975,0.6037,0.6094,0.6098,0.6058,0.6077,0.6085,0.6123,0.6131,0.6108,0.6101,0.6094,0.63,0.6082,0.6078,0.6075,0.6235,0.6244,0.6252,0,0,0,0,0,0,0.6046,0.6042,0.5972,0.5998,0.6007,0.6099,0.6102,0.6044,0.6073,0.6108,0.6117,0.6126,0.6089,0.6101,0.6096,0.6007,0.6087,0.6083,0.608,0.6078,0.6242,0.6249,0,0,0,0,0,0,0.6047,0.6044,0.5997,0.6004,0.6012,0.6083,0.6048,0.6018,0.6154,0.6103,0.6162,0.6165,0.6085,0.6082,0.6096,0.601,0.6008,0.6087,0.6084,0.6082,0.6081,0,0,0,0,0,0,0,0.6048,0.6032,0.5934,0.6009,0.6016,0.6029,0.603,0.6032,0.6155,0.6158,0.6161,0.6164,0.6112,0.6107,0.6103,0.6013,0,0,0.6088,0.6086,0,0,0,0,0,0,0,0,0.6037,0.6033,0.5934,0.5935,0.5936,0.6029,0.603,0.6032,0.6156,0.6158,0.616,0.6163,0.6111,0.6107,0.6103,0,0,0,0,0,0,0,0,0,0,0,0,0,0,0,0.5934,0.5935,0,0.6029,0.603,0.6031,0.6156,0.6158,0.616,0.6162,0.611,0.6107,0.6104,0,0,0,0,0,0,0,0,0,0,0,0,0,0,0,0,0,0,0,0,0,0,0,0,0,0,0,0,0,0,0,0,0,0,0,0,0,0,0,0,0,0,0,0,0,0,0,0,0,0,0,0,0,0,0,0,0,0,0,0,0,0,0,0,0,0,0,0,0]}],[{"header":{"parameterUnit":"kt","parameterCategory":2,"dx":1,"dy":1,"la1":30.253999710083008,"la2":30.299108505249023,"lo1":-89.0895004272461,"lo2":-89.04439544677734,"nx":28,"ny":28,"refTime":"2022-10-01T21:00:00:Z","depth":"0","parameterNumber":3,"parameterNumberName":"V-component_of_CURRENTS"},"data":[0.0527,0.0751,0.0848,0.1272,0.1499,0.1849,0.2068,0.2522,0.3003,0.3704,0.4117,0.4415,0.3868,0.168,0.025,-0.008,-0.0488,-0.0616,-0.0718,-0.0292,-0.0226,-0.0162,-0.0364,-0.0809,-0.0811,-0.1429,-0.1437,-0.1442,0.0437,0.0577,0.0832,0.1114,0.1389,0.1481,0.1895,0.2158,0.2677,0.3292,0.3745,0.3897,0.3328,0.2664,0.1446,0.0785,0.0571,0.0414,0.0214,0.0193,0.0942,0.0776,0.0565,0.0566,0.0566,0.0566,0.0567,0.0567,0.0289,0.0419,0.0612,0.0848,0.1101,0.1396,0.1606,0.1961,0.2389,0.2962,0.3201,0.3724,0.3335,0.2941,0.2556,0.1618,0.1718,0.1254,0.1118,0.1058,0.0815,0.1456,0.1633,0.1634,0.1636,0.1637,0.1637,0,0.0159,0.022,0.037,0.063,0.0831,0.1071,0.1339,0.1559,0.1863,0.2231,0.2765,0.3066,0.3177,0.3075,0.2739,0.2513,0.1826,0.2058,0.1727,0.115,0.0851,0.069,0.1476,0.1832,0.1834,0.1836,0.1837,0.1838,0.0028,0.0099,0.0302,0.0442,0.0526,0.0733,0.0926,0.1105,0.1362,0.1873,0.213,0.2507,0.2827,0.2949,0.2666,0.2502,0.2171,0.2132,0.1875,0.1385,0.1149,0.1005,0.0895,0.1865,0.1862,0.1859,0.1857,0,-0.0016,0.0026,0.0169,0.0332,0.0397,0.054,0.0806,0.1025,0.1207,0.1619,0.1739,0.2067,0.2345,0.232,0.2518,0.2264,0.2101,0.2224,0.1985,0.1915,0.1323,0.1131,0.1254,0.1145,0.2113,0.2111,0.211,0,-0.006,0.0018,0.012,0.0187,0.0375,0.0412,0.0661,0.0773,0.1033,0.1324,0.1381,0.1696,0.1769,0.1973,0.1873,0.1932,0.2147,0.1758,0.1721,0.1591,0.1551,0.1272,0.1065,0.2054,0.2052,0.205,0.2049,0,-0.0112,-0.0018,0.0084,0.0114,0.0239,0.0329,0.0411,0.0594,0.0751,0.1003,0.1189,0.1378,0.1558,0.1653,0.1638,0.1518,0.1955,0.1783,0.1611,0.1589,0.1546,0.1502,0.1582,0.2046,0.2046,0.2045,0.2044,0,-0.0163,-0.0095,0.001,0.0116,0.0146,0.0209,0.0407,0.0483,0.0686,0.0746,0.0903,0.0929,0.115,0.0984,0.1269,0.1136,0.1139,0.1164,0.1173,0.0995,0.0757,0.0903,0.1183,0.0828,0.1107,0.1101,0.1095,0,-0.023,-0.0133,-0.0125,-0.0028,0.0013,0.0031,0.0121,0.02,0.0259,0.0416,0.0453,0.0556,0.0381,0.0443,0.0597,0.065,0.0808,0.0576,0.0829,0.0836,0.07,0.0986,0.0874,0.1084,0.1011,0.1019,0.1026,0,-0.0301,-0.0251,-0.0242,-0.0214,-0.0197,-0.0148,-0.0075,0.0005,0.0118,0.0093,0.0269,0.0226,0.0237,0.0234,0.0167,0.0344,0.0644,0.0264,0.027,0.0398,0.1067,0.0882,0.0919,0.0683,0.0695,0.0705,0.0959,0,-0.0389,-0.0357,-0.0315,-0.0292,-0.0265,-0.022,-0.0224,-0.0192,-0.0219,-0.0213,-0.0123,-0.0184,-0.014,-0.0179,-0.0262,-0.0003,-0.0069,-0.0114,-0.0116,0.0063,0.0122,0.0176,-0.0511,-0.0515,-0.0518,-0.052,0,0,-0.0507,-0.0443,-0.0452,-0.0418,-0.0398,-0.0443,-0.0397,-0.0398,-0.0432,-0.039,-0.0483,-0.046,-0.0527,-0.0403,-0.0397,-0.0467,-0.0388,-0.0415,-0.0098,-0.0051,-0.0008,0.0065,0.012,-0.0526,-0.0527,-0.0528,-0.0529,0,-0.0539,-0.0521,-0.0473,-0.047,-0.0466,-0.048,-0.0469,-0.0493,-0.0508,-0.0504,-0.0591,-0.0574,-0.0633,-0.0614,-0.0621,-0.0524,-0.0492,-0.0573,-0.0351,-0.0135,-0.0084,-0.0038,0.0043,0.0094,-0.0537,-0.0537,-0.0536,0,-0.0635,-0.0623,-0.0594,-0.057,-0.0576,-0.0552,-0.0626,-0.0598,-0.0578,-0.0698,-0.0693,-0.075,-0.0804,-0.0772,-0.0765,-0.0788,-0.0552,-0.0716,-0.0702,-0.0617,-0.0393,-0.0339,-0.029,-0.0893,-0.0893,-0.0893,0,0,-0.0677,-0.063,-0.0641,-0.058,-0.0578,-0.0617,-0.0616,-0.0648,-0.0679,-0.0703,-0.0752,-0.0799,-0.0818,-0.0814,-0.0852,-0.0797,-0.0724,-0.075,-0.0734,-0.0719,-0.0628,-0.0402,-0.0352,-0.0894,-0.0894,-0.0895,0,0,-0.0699,-0.0686,-0.0712,-0.0644,-0.0648,-0.0672,-0.0653,-0.0696,-0.0738,-0.0752,-0.0828,-0.0843,-0.0836,-0.0873,-0.0885,-0.0827,-0.091,-0.0908,-0.0757,-0.0738,-0.0722,-0.0602,-0.094,0,0,0,0,0,-0.0744,-0.0679,-0.0702,-0.0693,-0.0677,-0.0652,-0.0656,-0.0713,-0.0758,-0.0748,-0.0816,-0.0845,-0.0906,-0.0918,-0.092,-0.0834,-0.0909,-0.0907,-0.0904,-0.0703,-0.0682,-0.0664,0,0,0,0,0,0,-0.074,-0.0727,-0.0704,-0.0716,-0.0713,-0.0655,-0.0737,-0.0752,-0.0761,-0.0774,-0.0834,-0.0846,-0.0895,-0.0919,-0.092,-0.0836,-0.094,-0.0908,-0.0906,-0.0904,-0.0696,-0.0679,-0.0664,0,0,0,0,0,-0.0738,-0.0727,-0.0678,-0.072,-0.0717,-0.0771,-0.074,-0.0754,-0.0773,-0.0825,-0.084,-0.0815,-0.0892,-0.0898,-0.0919,-0.0834,-0.0939,-0.0939,-0.0907,-0.0905,-0.0903,-0.0688,0,0,0,0,0,0,-0.0736,-0.0759,-0.068,-0.0683,-0.0746,-0.0778,-0.0782,-0.0755,-0.0826,-0.0838,-0.0808,-0.0817,-0.0889,-0.0895,-0.0899,-0.0829,-0.0938,-0.0939,-0.0939,-0.0905,-0.0904,-0.0903,0,0,0,0,0,0,-0.0765,-0.076,-0.0682,-0.0712,-0.072,-0.0784,-0.0787,-0.0779,-0.0826,-0.0808,-0.0816,-0.0811,-0.0881,-0.0892,-0.0895,-0.0881,-0.0938,-0.0938,-0.0939,-0.0939,-0.0904,-0.0903,0,0,0,0,0,0,-0.0765,-0.0761,-0.0713,-0.0718,-0.0725,-0.0766,-0.078,-0.0764,-0.084,-0.0805,-0.0849,-0.0852,-0.0876,-0.0882,-0.0892,-0.0876,-0.088,-0.0938,-0.0938,-0.0938,-0.0939,0,0,0,0,0,0,0,-0.0765,-0.0764,-0.0655,-0.0723,-0.0729,-0.0707,-0.0709,-0.071,-0.0841,-0.0844,-0.0848,-0.0851,-0.0936,-0.0937,-0.0937,-0.0872,0,0,-0.0938,-0.0938,0,0,0,0,0,0,0,0,-0.0768,-0.0765,-0.0655,-0.0655,-0.0655,-0.0707,-0.0709,-0.071,-0.0842,-0.0844,-0.0847,-0.085,-0.0936,-0.0937,-0.0937,0,0,0,0,0,0,0,0,0,0,0,0,0,0,0,-0.0655,-0.0655,0,-0.0707,-0.0709,-0.071,-0.0842,-0.0844,-0.0846,-0.0849,-0.0936,-0.0937,-0.0937,0,0,0,0,0,0,0,0,0,0,0,0,0,0,0,0,0,0,0,0,0,0,0,0,0,0,0,0,0,0,0,0,0,0,0,0,0,0,0,0,0,0,0,0,0,0,0,0,0,0,0,0,0,0,0,0,0,0,0,0,0,0,0,0,0,0,0,0,0]}]],[[{"header":{"parameterUnit":"kt","parameterCategory":2,"dx":1,"dy":1,"la1":30.253999710083008,"la2":30.299108505249023,"lo1":-89.0895004272461,"lo2":-89.04439544677734,"nx":28,"ny":28,"refTime":"2022-10-01T21:00:00:Z","depth":"2","parameterNumber":2,"parameterNumberName":"U-component_of_CURRENTS"},"data":[0.595,0.6055,0.6031,0.6016,0.6093,0.5915,0.5776,0.5353,0.5149,0.47,0.4501,0.4712,0.4827,0.3985,0.3808,0.3446,0.3888,0.3274,0.4876,0.5013,0.5126,0.5404,0.4915,0,0,0,0,0,0.5814,0.5916,0.6055,0.6132,0.6157,0.6306,0.6283,0.6039,0.5824,0.5873,0.5809,0.5214,0.4928,0.4984,0.4475,0.4381,0.4371,0.4232,0.4233,0.4366,0.4485,0.4074,0.3182,0.3176,0.3171,0.3166,0,0,0.5584,0.572,0.5782,0.599,0.6164,0.6207,0.6199,0.6289,0.6372,0.6371,0.666,0.6495,0.6543,0.605,0.5823,0.5653,0.6097,0.5859,0.5909,0.5974,0.5637,0.5341,0.5158,0.5166,0.5173,0.5179,0.5185,0,0.53,0.5346,0.5471,0.5682,0.5904,0.6062,0.6322,0.6436,0.6653,0.6857,0.7004,0.7114,0.7294,0.6921,0.6924,0.6779,0.6957,0.6741,0.7866,0.6311,0.6028,0.5904,0.5915,0.6036,0.6049,0.6059,0.6066,0.6072,0.4913,0.5023,0.5176,0.5308,0.5482,0.5775,0.5984,0.62,0.6402,0.6842,0.7037,0.7461,0.7584,0.7792,0.7641,0.7599,0.7883,0.7065,0.6736,0.7454,0.7333,0.7291,0.7249,0.6215,0.6197,0.6182,0.617,0,0.4671,0.4716,0.4912,0.5079,0.5168,0.5407,0.5759,0.5988,0.6291,0.6736,0.6928,0.7334,0.7566,0.7788,0.8109,0.7965,0.8008,0.7976,0.7239,0.7063,0.7338,0.7282,0.7731,0.772,0.771,0.7702,0.7695,0,0.4407,0.4561,0.463,0.4804,0.5047,0.5127,0.5519,0.5686,0.6074,0.6398,0.6687,0.7003,0.7372,0.7654,0.7657,0.7705,0.8031,0.7578,0.7499,0.6941,0.6842,0.7627,0.7566,0.8122,0.8119,0.8116,0.8114,0,0.4304,0.4364,0.4549,0.4625,0.483,0.4995,0.5138,0.5485,0.5698,0.6168,0.6414,0.6836,0.7165,0.735,0.746,0.7347,0.785,0.7672,0.7409,0.7372,0.6924,0.6822,0.811,0.811,0.8109,0.8108,0.8107,0,0.4226,0.4298,0.4485,0.4605,0.4664,0.4827,0.5153,0.5294,0.5696,0.5844,0.6216,0.6411,0.68,0.6704,0.7117,0.693,0.7044,0.7088,0.71,0.6701,0.6382,0.6091,0.6302,0.705,0.7041,0.7034,0.7027,0,0.4179,0.4301,0.4349,0.449,0.4569,0.4699,0.4864,0.506,0.5238,0.5533,0.5762,0.6052,0.599,0.616,0.6361,0.6447,0.6685,0.6401,0.67,0.6711,0.6272,0.6592,0.5969,0.6213,0.6925,0.6936,0.6944,0,0.414,0.4246,0.4267,0.4327,0.4493,0.4568,0.4717,0.4907,0.5081,0.5236,0.5519,0.5695,0.5847,0.5919,0.595,0.6139,0.6494,0.6054,0.6061,0.6173,0.6951,0.6499,0.6523,0.6469,0.6483,0.6494,0.6863,0,0.416,0.42,0.4238,0.434,0.4417,0.4515,0.4616,0.4715,0.4787,0.4893,0.5164,0.5228,0.5434,0.5452,0.5402,0.5782,0.5718,0.5635,0.5557,0.5813,0.5921,0.5985,0.5181,0.5177,0.5174,0.5172,0,0,0.4105,0.4157,0.4193,0.4252,0.4321,0.4386,0.4459,0.4528,0.4602,0.4694,0.4649,0.4918,0.492,0.5171,0.5256,0.5199,0.5288,0.5239,0.564,0.5692,0.574,0.5859,0.5924,0.5167,0.5166,0.5165,0.5164,0,0.4107,0.4159,0.4173,0.424,0.4313,0.4354,0.4384,0.445,0.4505,0.4582,0.4592,0.4729,0.4766,0.4884,0.4925,0.5126,0.5163,0.5146,0.5384,0.5605,0.566,0.5709,0.5837,0.5897,0.5157,0.5158,0.5158,0,0.4097,0.4124,0.4135,0.4199,0.4238,0.4301,0.4274,0.4342,0.4413,0.4338,0.4442,0.448,0.4514,0.4646,0.4705,0.465,0.5038,0.4842,0.4859,0.4975,0.5203,0.5265,0.532,0.462,0.4618,0.4617,0,0,0.4095,0.4121,0.4161,0.4198,0.4226,0.4255,0.4275,0.4304,0.4324,0.434,0.436,0.4404,0.4472,0.4503,0.4555,0.4644,0.4734,0.4778,0.4803,0.4824,0.4948,0.5182,0.524,0.461,0.461,0.461,0,0,0.4092,0.4121,0.4136,0.4167,0.422,0.4242,0.427,0.4277,0.4305,0.4315,0.429,0.4293,0.4412,0.4399,0.431,0.4586,0.4483,0.4499,0.4589,0.462,0.4644,0.4785,0.4292,0,0,0,0,0,0.4097,0.4115,0.4128,0.4136,0.4179,0.4234,0.424,0.4256,0.4247,0.4292,0.4283,0.4279,0.4381,0.4299,0.4301,0.4462,0.4526,0.4541,0.4555,0.4694,0.4727,0.4755,0,0,0,0,0,0,0.41,0.4111,0.4127,0.4147,0.4155,0.4232,0.4203,0.4209,0.4245,0.425,0.4275,0.4278,0.4267,0.4297,0.43,0.4455,0.4291,0.4532,0.4545,0.4556,0.4705,0.4732,0.4756,0,0,0,0,0,0.4102,0.4111,0.4183,0.4146,0.4154,0.4175,0.4204,0.4209,0.4252,0.4239,0.4244,0.4268,0.4266,0.427,0.4298,0.4457,0.4289,0.429,0.454,0.455,0.4559,0.4718,0,0,0,0,0,0,0.4104,0.4114,0.4184,0.4186,0.415,0.4174,0.4182,0.4209,0.424,0.4244,0.4226,0.4229,0.4265,0.4268,0.4271,0.4463,0.4288,0.4289,0.4289,0.4548,0.4556,0.4563,0,0,0,0,0,0,0.4109,0.4116,0.4185,0.419,0.4192,0.4173,0.418,0.4188,0.424,0.4226,0.4229,0.4227,0.426,0.4267,0.427,0.428,0.4287,0.4288,0.4288,0.4289,0.4554,0.456,0,0,0,0,0,0,0.4111,0.4117,0.419,0.4192,0.4194,0.4213,0.4179,0.4225,0.4239,0.4225,0.424,0.4241,0.4258,0.4261,0.4268,0.4278,0.428,0.4287,0.4287,0.4288,0.4288,0,0,0,0,0,0,0,0.4113,0.4078,0.4172,0.4193,0.4195,0.4198,0.4198,0.4199,0.4239,0.4239,0.424,0.4241,0.4282,0.4283,0.4284,0.4276,0,0,0.4287,0.4287,0,0,0,0,0,0,0,0,0.4075,0.4077,0.4172,0.4172,0.4172,0.4198,0.4198,0.4199,0.4239,0.4239,0.424,0.4241,0.4282,0.4283,0.4284,0,0,0,0,0,0,0,0,0,0,0,0,0,0,0,0.4172,0.4172,0,0.4198,0.4198,0.4199,0.4239,0.4239,0.424,0.424,0.4282,0.4283,0.4283,0,0,0,0,0,0,0,0,0,0,0,0,0,0,0,0,0,0,0,0,0,0,0,0,0,0,0,0,0,0,0,0,0,0,0,0,0,0,0,0,0,0,0,0,0,0,0,0,0,0,0,0,0,0,0,0,0,0,0,0,0,0,0,0,0,0,0,0,0]}],[{"header":{"parameterUnit":"kt","parameterCategory":2,"dx":1,"dy":1,"la1":30.253999710083008,"la2":30.299108505249023,"lo1":-89.0895004272461,"lo2":-89.04439544677734,"nx":28,"ny":28,"refTime":"2022-10-01T21:00:00:Z","depth":"2","parameterNumber":3,"parameterNumberName":"V-component_of_CURRENTS"},"data":[0.1721,0.202,0.2133,0.2634,0.2872,0.3293,0.3595,0.3853,0.3979,0.3946,0.3721,0.3448,0.2661,0.1842,0.1065,0.0508,0.0482,0.0391,0.0615,0.0851,0.0882,0.0403,0.0397,0,0,0,0,0,0.1549,0.1708,0.1998,0.2402,0.2699,0.2799,0.3339,0.3586,0.3983,0.4055,0.4065,0.3299,0.2609,0.1908,0.0825,0.0212,0.0191,0.0055,0.0161,0.0187,0.0209,0.0186,-0.0039,-0.0041,-0.0042,-0.0043,0,0,0.1287,0.1468,0.175,0.2057,0.2335,0.2724,0.3023,0.3353,0.372,0.4039,0.399,0.3823,0.3215,0.1986,0.1309,0.0623,0.0631,0.035,0.0364,0.038,0.036,0.0325,0.0184,0.0184,0.0185,0.0185,0.0186,0,0.1136,0.1233,0.1466,0.1809,0.2065,0.2377,0.2712,0.2967,0.3279,0.3496,0.3758,0.3729,0.3199,0.251,0.1674,0.1179,0.0854,0.0691,0.0911,0.0632,0.0604,0.0514,0.0519,0.0519,0.0522,0.0524,0.0525,0.0526,0.0957,0.1099,0.145,0.1627,0.1748,0.203,0.2249,0.2462,0.2727,0.3068,0.3287,0.3267,0.3227,0.2579,0.1894,0.119,0.116,0.0776,0.0596,0.0724,0.0631,0.063,0.0627,0.0553,0.0549,0.0546,0.0544,0,0.0892,0.0999,0.1276,0.1554,0.1643,0.1851,0.2142,0.237,0.2512,0.2847,0.2926,0.3006,0.2799,0.2411,0.2005,0.1604,0.1177,0.1016,0.0994,0.09,0.0655,0.0647,0.067,0.0665,0.0661,0.0658,0.0655,0,0.0822,0.0988,0.1191,0.1308,0.1595,0.167,0.195,0.2062,0.226,0.2508,0.2435,0.2607,0.2279,0.2143,0.1703,0.1303,0.1421,0.0904,0.0812,0.0787,0.0767,0.0867,0.0848,0.1029,0.103,0.103,0.1031,0,0.0703,0.0921,0.1118,0.1177,0.1392,0.1504,0.1619,0.1753,0.19,0.2053,0.2194,0.213,0.2183,0.1889,0.1523,0.144,0.1283,0.1125,0.0824,0.0809,0.073,0.0704,0.1032,0.1032,0.1032,0.1032,0.1032,0,0.0597,0.0741,0.094,0.1181,0.1224,0.1309,0.1532,0.1617,0.1728,0.1756,0.1807,0.1764,0.1739,0.1534,0.1327,0.1322,0.1116,0.0951,0.0944,0.0775,0.059,0.0535,0.0613,0.0765,0.0764,0.0762,0.0761,0,0.0505,0.0689,0.07,0.0893,0.1,0.0994,0.1097,0.116,0.1191,0.1321,0.1245,0.1337,0.1114,0.1163,0.1093,0.0932,0.0899,0.0883,0.0708,0.0704,0.0604,0.0702,0.0667,0.0602,0.0747,0.0749,0.075,0,0.0403,0.0517,0.0532,0.0638,0.0657,0.0718,0.0781,0.0872,0.0995,0.0923,0.1094,0.1003,0.0974,0.0962,0.0873,0.0835,0.086,0.0694,0.0689,0.0695,0.0828,0.0693,0.0688,0.0794,0.0798,0.0801,0.0738,0,0.0377,0.0439,0.0463,0.053,0.0554,0.06,0.0594,0.0622,0.0607,0.0615,0.0683,0.0599,0.0641,0.0581,0.0511,0.0597,0.0524,0.0451,0.0408,0.0499,0.0446,0.0456,0.0287,0.0283,0.028,0.0278,0,0,0.0284,0.0355,0.0316,0.0367,0.0406,0.034,0.0416,0.0402,0.039,0.0436,0.0362,0.0381,0.0307,0.0403,0.0411,0.034,0.0305,0.0363,0.0429,0.0446,0.0462,0.042,0.0433,0.0273,0.0272,0.0271,0.027,0,0.0277,0.0256,0.0305,0.0312,0.0315,0.0312,0.0319,0.0302,0.0305,0.0325,0.0282,0.0282,0.0233,0.0244,0.0236,0.0297,0.0227,0.0254,0.041,0.0403,0.0424,0.0442,0.0406,0.042,0.0263,0.0263,0.0263,0,0.0225,0.0236,0.0247,0.0254,0.0242,0.028,0.0219,0.0223,0.0269,0.0176,0.0214,0.0166,0.0119,0.0139,0.0136,0.0103,0.0155,0.0116,0.0129,0.0187,0.0177,0.0201,0.0221,-0.0037,-0.0037,-0.0037,0,0,0.0221,0.0247,0.0234,0.0249,0.0244,0.022,0.0215,0.0209,0.0192,0.0185,0.0156,0.0121,0.0112,0.0102,0.0073,0.0073,0.0044,0.0089,0.0103,0.0115,0.0179,0.0173,0.0195,-0.0037,-0.0037,-0.0037,0,0,0.0214,0.0223,0.0214,0.0227,0.0224,0.0201,0.0202,0.0186,0.017,0.0167,0.012,0.0111,0.0121,0.0063,0.0064,0.0072,0.0,-0.0001,0.0146,0.0162,0.0175,0.027,0.0018,0,0,0,0,0,0.0209,0.0225,0.0216,0.0216,0.0202,0.0203,0.0198,0.0182,0.0164,0.0174,0.0148,0.0111,0.0061,0.0061,0.0049,0.0097,-0.0044,-0.0043,-0.0041,0.0144,0.0162,0.0177,0,0,0,0,0,0,0.0209,0.021,0.0215,0.0196,0.0192,0.0202,0.0176,0.0171,0.0165,0.0164,0.0118,0.0109,0.008,0.0063,0.0053,0.0101,0.0021,-0.0043,-0.0042,-0.0041,0.015,0.0165,0.0177,0,0,0,0,0,0.0209,0.021,0.0198,0.0194,0.0191,0.017,0.0177,0.0173,0.0165,0.0122,0.0114,0.0157,0.0081,0.007,0.0057,0.0108,0.0028,0.0024,-0.0043,-0.0042,-0.0041,0.0157,0,0,0,0,0,0,0.0209,0.0195,0.0196,0.0193,0.02,0.017,0.0167,0.0174,0.0123,0.0117,0.0158,0.0158,0.0081,0.0073,0.0065,0.0116,0.0033,0.003,0.0027,-0.0042,-0.0041,-0.0041,0,0,0,0,0,0,0.0194,0.0193,0.0194,0.0203,0.0201,0.017,0.0168,0.0129,0.0122,0.0161,0.016,0.0158,0.0088,0.0074,0.0068,0.0008,0.0038,0.0034,0.0032,0.003,-0.0042,-0.0041,0,0,0,0,0,0,0.0193,0.0191,0.0203,0.0202,0.02,0.0165,0.0133,0.0115,0.0144,0.0163,0.0146,0.0146,0.009,0.0083,0.007,0.0013,0.0009,0.0037,0.0035,0.0033,0.0032,0,0,0,0,0,0,0,0.0191,0.0212,0.0216,0.0201,0.0199,0.0168,0.0167,0.0166,0.0145,0.0145,0.0145,0.0146,0.0058,0.0054,0.005,0.0017,0,0,0.0038,0.0036,0,0,0,0,0,0,0,0,0.0211,0.0212,0.0216,0.0216,0.0215,0.0168,0.0167,0.0166,0.0145,0.0145,0.0145,0.0146,0.0057,0.0054,0.005,0,0,0,0,0,0,0,0,0,0,0,0,0,0,0,0.0216,0.0216,0,0.0168,0.0167,0.0166,0.0145,0.0145,0.0145,0.0146,0.0056,0.0053,0.0051,0,0,0,0,0,0,0,0,0,0,0,0,0,0,0,0,0,0,0,0,0,0,0,0,0,0,0,0,0,0,0,0,0,0,0,0,0,0,0,0,0,0,0,0,0,0,0,0,0,0,0,0,0,0,0,0,0,0,0,0,0,0,0,0,0,0,0,0,0]}]],[[{"header":{"parameterUnit":"kt","parameterCategory":2,"dx":1,"dy":1,"la1":30.253999710083008,"la2":30.299108505249023,"lo1":-89.0895004272461,"lo2":-89.04439544677734,"nx":28,"ny":28,"refTime":"2022-10-01T21:00:00:Z","depth":"4","parameterNumber":2,"parameterNumberName":"U-component_of_CURRENTS"},"data":[0.0695,0.0788,0.0829,0.0823,0.0853,0.0994,0.1181,0.1518,0.1646,0.2146,0.222,0.2591,0.2694,0.2979,0.2856,0.2876,0.2895,0.3131,0.3122,0.3322,0.3356,0.3387,0.3088,0,0,0,0,0,0.0768,0.0804,0.0891,0.1008,0.1135,0.1234,0.1567,0.1796,0.2269,0.2426,0.27,0.2838,0.2952,0.3057,0.2936,0.3115,0.3219,0.2944,0.3095,0.3344,0.3381,0.3078,0,0,0,0,0,0,0.0865,0.0891,0.1054,0.119,0.1345,0.1451,0.1658,0.1945,0.2218,0.2856,0.2896,0.3242,0.349,0.3402,0.336,0.3296,0.3321,0.3219,0.3261,0.3297,0.3034,0.2864,0.277,0,0,0,0,0,0.0976,0.1094,0.1183,0.1352,0.1519,0.169,0.1966,0.2128,0.2563,0.2943,0.3242,0.3371,0.3509,0.3547,0.3487,0.349,0.3667,0.3553,0.3576,0.3531,0.3442,0.3414,0.3413,0.3524,0.3528,0.3531,0.3533,0,0.1187,0.1204,0.1442,0.1515,0.1624,0.1853,0.2026,0.2408,0.2591,0.3133,0.3218,0.3545,0.3696,0.369,0.3735,0.3759,0.3667,0.3649,0.36,0.35,0.3466,0.3455,0.3443,0.3563,0.3561,0.3558,0.3556,0,0.1338,0.1437,0.148,0.1709,0.1813,0.1914,0.2276,0.2441,0.2797,0.308,0.3201,0.3524,0.3718,0.3805,0.3967,0.3828,0.3847,0.3749,0.3971,0.395,0.3511,0.3486,0.3613,0.3602,0.3593,0.3585,0.3578,0,0.1556,0.1565,0.1769,0.1773,0.1902,0.2047,0.2248,0.2428,0.2736,0.2945,0.3184,0.3374,0.3575,0.3697,0.3749,0.3748,0.3966,0.367,0.3645,0.386,0.3837,0.3835,0.3805,0.4066,0.4064,0.4062,0.406,0,0.1699,0.1785,0.1797,0.1832,0.1997,0.2082,0.2212,0.2466,0.2628,0.2904,0.3106,0.3295,0.348,0.3593,0.3696,0.3691,0.3907,0.3916,0.363,0.3608,0.3812,0.3786,0.4058,0.4057,0.4057,0.4056,0.4055,0,0.1841,0.1884,0.1893,0.2011,0.204,0.2112,0.2323,0.2421,0.2666,0.2802,0.2989,0.3108,0.3319,0.328,0.3556,0.3469,0.3528,0.3586,0.3596,0.3221,0.3112,0.3478,0.3673,0.3668,0.3665,0.3661,0.3658,0,0.1933,0.1947,0.2002,0.204,0.2055,0.2178,0.2281,0.2404,0.2551,0.2706,0.283,0.2996,0.3007,0.3117,0.32,0.3319,0.3406,0.3261,0.3427,0.3432,0.3109,0.3205,0.3335,0.3605,0.3612,0.3616,0.362,0,0.1985,0.2061,0.2068,0.2092,0.2178,0.2207,0.2302,0.2399,0.2525,0.2616,0.2746,0.2877,0.2968,0.3001,0.304,0.3126,0.3327,0.3106,0.3108,0.3231,0.3559,0.3188,0.3185,0.331,0.3315,0.3319,0.3583,0,0.2048,0.2081,0.2095,0.2146,0.2191,0.2212,0.2292,0.2369,0.2454,0.2516,0.2665,0.2721,0.282,0.2852,0.285,0.3005,0.2999,0.295,0.2915,0.3011,0.3108,0.3138,0.2755,0.2752,0.275,0.2749,0,0,0.2073,0.2084,0.2154,0.2167,0.2195,0.2275,0.2281,0.2341,0.239,0.2443,0.2464,0.2609,0.2639,0.2745,0.2782,0.2765,0.2814,0.2777,0.2936,0.2957,0.2976,0.3075,0.3106,0.2745,0.2745,0.2744,0.2743,0,0.206,0.2134,0.2147,0.2181,0.223,0.2253,0.2281,0.2321,0.237,0.2423,0.2452,0.2541,0.2578,0.2624,0.265,0.2726,0.2766,0.2739,0.2821,0.2915,0.2939,0.296,0.3062,0.3091,0.2738,0.2739,0.2739,0,0.2071,0.2098,0.2125,0.2169,0.2199,0.2221,0.2249,0.2292,0.2327,0.233,0.2402,0.2443,0.246,0.2521,0.2555,0.2524,0.2706,0.2614,0.2623,0.2641,0.2737,0.2763,0.2786,0.2499,0.2499,0.2498,0,0,0.2061,0.21,0.2131,0.2165,0.2188,0.2225,0.2253,0.2278,0.2303,0.233,0.2364,0.2397,0.2441,0.2467,0.2487,0.2529,0.2563,0.259,0.2601,0.2611,0.2634,0.2731,0.2755,0.2497,0.2497,0.2497,0,0,0.2045,0.2089,0.2118,0.2158,0.2187,0.2197,0.2236,0.2269,0.2312,0.2333,0.2352,0.2361,0.2441,0.242,0.2401,0.251,0.2455,0.2459,0.2546,0.256,0.2571,0.2599,0.2408,0,0,0,0,0,0.205,0.2077,0.2104,0.2115,0.2164,0.218,0.2187,0.2237,0.228,0.2308,0.2334,0.2354,0.2408,0.239,0.2396,0.2486,0.2482,0.2485,0.2488,0.2609,0.2624,0.2636,0,0,0,0,0,0,0.2054,0.2065,0.2103,0.2111,0.2124,0.2179,0.2198,0.221,0.2279,0.2289,0.2344,0.2352,0.2348,0.2389,0.2394,0.248,0.2407,0.2483,0.2486,0.2488,0.2614,0.2626,0.2636,0,0,0,0,0,0.2058,0.2066,0.214,0.2111,0.2122,0.2185,0.2199,0.221,0.2277,0.2286,0.2299,0.2324,0.2345,0.2354,0.2392,0.2479,0.2404,0.2405,0.2485,0.2487,0.2488,0.262,0,0,0,0,0,0,0.206,0.2066,0.2143,0.2147,0.2132,0.2185,0.2196,0.221,0.2272,0.2285,0.2261,0.2267,0.2343,0.2351,0.2357,0.248,0.2401,0.2403,0.2404,0.2486,0.2488,0.2489,0,0,0,0,0,0,0.2062,0.207,0.2145,0.2169,0.2176,0.2185,0.2195,0.2205,0.2273,0.2243,0.225,0.2263,0.2345,0.2347,0.2353,0.2365,0.2399,0.2401,0.2402,0.2403,0.2487,0.2488,0,0,0,0,0,0,0.2066,0.2072,0.2167,0.2173,0.218,0.2233,0.2195,0.225,0.2279,0.2239,0.2285,0.2288,0.2341,0.2347,0.235,0.2359,0.2363,0.2399,0.24,0.2401,0.2402,0,0,0,0,0,0,0,0.2069,0.2019,0.212,0.2177,0.2183,0.2191,0.2192,0.2193,0.2279,0.2282,0.2284,0.2287,0.239,0.2392,0.2393,0.2354,0,0,0.2399,0.24,0,0,0,0,0,0,0,0,0.2017,0.2019,0.212,0.2121,0.2123,0.2191,0.2192,0.2193,0.228,0.2282,0.2284,0.2286,0.239,0.2392,0.2393,0,0,0,0,0,0,0,0,0,0,0,0,0,0,0,0.212,0.2121,0,0.2191,0.2192,0.2193,0.228,0.2282,0.2283,0.2285,0.2391,0.2392,0.2393,0,0,0,0,0,0,0,0,0,0,0,0,0,0,0,0,0,0,0,0,0,0,0,0,0,0,0,0,0,0,0,0,0,0,0,0,0,0,0,0,0,0,0,0,0,0,0,0,0,0,0,0,0,0,0,0,0,0,0,0,0,0,0,0,0,0,0,0,0]}],[{"header":{"parameterUnit":"kt","parameterCategory":2,"dx":1,"dy":1,"la1":30.253999710083008,"la2":30.299108505249023,"lo1":-89.0895004272461,"lo2":-89.04439544677734,"nx":28,"ny":28,"refTime":"2022-10-01T21:00:00:Z","depth":"4","parameterNumber":3,"parameterNumberName":"V-component_of_CURRENTS"},"data":[0.0953,0.1061,0.1102,0.1314,0.1443,0.1712,0.1835,0.191,0.1836,0.1818,0.1491,0.1454,0.0852,0.1126,0.0301,0.0194,0.0077,-0.0517,-0.0523,-0.0698,-0.0697,-0.0695,-0.0577,0,0,0,0,0,0.0966,0.1015,0.1129,0.1311,0.1505,0.1658,0.1851,0.1934,0.1985,0.1909,0.1856,0.1495,0.094,0.0634,0.0304,0.0125,-0.0327,-0.027,-0.0407,-0.0697,-0.0695,-0.0581,0,0,0,0,0,0,0.0955,0.0995,0.1112,0.1279,0.1475,0.167,0.1779,0.1847,0.1923,0.1857,0.1766,0.1366,0.1096,0.0534,0.0153,-0.0192,-0.023,-0.0284,-0.0304,-0.0306,-0.0156,0.0003,-0.0051,0,0,0,0,0,0.0942,0.0987,0.1075,0.1263,0.1426,0.1612,0.1765,0.1814,0.1852,0.1878,0.1695,0.1384,0.0975,0.0439,0.0038,-0.0305,-0.0582,-0.0674,-0.0673,-0.0601,-0.0522,-0.0535,-0.0517,-0.0687,-0.0687,-0.0687,-0.0687,0,0.0877,0.0963,0.1117,0.1203,0.1274,0.1423,0.1545,0.1608,0.166,0.1594,0.157,0.1273,0.1034,0.0428,-0.0003,-0.0489,-0.0536,-0.0668,-0.0591,-0.0516,-0.0534,-0.0516,-0.0498,-0.0685,-0.0685,-0.0685,-0.0685,0,0.0822,0.0901,0.1028,0.1135,0.12,0.1279,0.1417,0.1485,0.1463,0.1473,0.1444,0.1148,0.0813,0.0424,-0.0019,-0.0198,-0.0501,-0.0584,-0.0461,-0.0487,-0.0505,-0.0487,-0.0682,-0.0683,-0.0683,-0.0684,-0.0684,0,0.0741,0.0838,0.0937,0.1011,0.1138,0.1138,0.1246,0.1227,0.1203,0.1219,0.1021,0.0951,0.0548,0.0292,0.0047,-0.0241,-0.0288,-0.0395,-0.0433,-0.0343,-0.0328,-0.0383,-0.037,-0.0484,-0.0482,-0.0481,-0.048,0,0.0632,0.0749,0.087,0.0903,0.0973,0.1021,0.1048,0.1009,0.1041,0.0912,0.0908,0.0659,0.0567,0.0322,0.0055,0.0078,-0.0288,-0.0278,-0.0378,-0.0376,-0.037,-0.0359,-0.0478,-0.0478,-0.0478,-0.0477,-0.0477,0,0.055,0.0628,0.0757,0.0844,0.086,0.0905,0.0935,0.0945,0.0841,0.0801,0.0689,0.058,0.0421,0.0365,0.0085,0.0153,0.0019,-0.0108,-0.0117,-0.0119,-0.0122,-0.0153,-0.0211,-0.0208,-0.0206,-0.0203,-0.0201,0,0.0468,0.0588,0.0589,0.0692,0.0756,0.0724,0.0742,0.0717,0.0682,0.0633,0.0493,0.0463,0.0397,0.0387,0.0258,0.0119,0.0023,0.0125,-0.0111,-0.0117,-0.0093,-0.0147,0.0008,-0.0165,-0.017,-0.0173,-0.0175,0,0.0394,0.0474,0.0488,0.0547,0.0558,0.0575,0.0585,0.0582,0.0598,0.0523,0.0495,0.0429,0.0367,0.0343,0.0293,0.0188,0.0075,0.015,0.0143,0.0079,-0.014,-0.0107,-0.0125,0.0026,0.0022,0.0019,-0.0151,0,0.0378,0.0425,0.0441,0.0487,0.0487,0.052,0.0498,0.0499,0.0483,0.0454,0.0409,0.0348,0.0313,0.0289,0.0272,0.0197,0.0182,0.0157,0.0131,0.0115,0.0048,0.0029,0.0245,0.0244,0.0244,0.0243,0,0,0.0318,0.0371,0.0344,0.0382,0.0401,0.0364,0.0408,0.0394,0.039,0.0381,0.037,0.0306,0.0278,0.0242,0.0249,0.0238,0.0181,0.0239,0.0144,0.0133,0.0123,0.0057,0.0039,0.0242,0.0242,0.0242,0.0242,0,0.0316,0.0308,0.034,0.0346,0.0355,0.035,0.0354,0.0351,0.0352,0.0354,0.0331,0.0293,0.0278,0.0247,0.0231,0.0234,0.0172,0.0238,0.0249,0.0143,0.0133,0.0124,0.0058,0.0042,0.024,0.024,0.024,0,0.0288,0.0298,0.0304,0.031,0.0311,0.0331,0.0305,0.0314,0.0334,0.0294,0.031,0.0277,0.0248,0.0238,0.023,0.0224,0.0153,0.0206,0.0209,0.0198,0.0087,0.0077,0.0068,0.0173,0.0173,0.0173,0,0,0.0288,0.0306,0.0299,0.0308,0.0307,0.0303,0.0301,0.0307,0.0302,0.0303,0.0286,0.027,0.025,0.0241,0.0222,0.0205,0.0145,0.0199,0.0203,0.0205,0.0197,0.0087,0.0078,0.0173,0.0173,0.0173,0,0,0.0286,0.0293,0.0296,0.0302,0.0301,0.0295,0.0298,0.0296,0.0294,0.0301,0.0275,0.0269,0.0257,0.0238,0.0238,0.0216,0.0202,0.0201,0.0232,0.0236,0.0239,0.0235,0.0217,0,0,0,0,0,0.0286,0.0292,0.0293,0.0294,0.0295,0.0292,0.0292,0.0294,0.0295,0.0302,0.0293,0.0274,0.024,0.024,0.0231,0.023,0.0169,0.017,0.0171,0.0207,0.0211,0.0214,0,0,0,0,0,0,0.0286,0.0287,0.0293,0.0287,0.0287,0.0292,0.0293,0.0294,0.0295,0.0298,0.0277,0.0273,0.0258,0.0242,0.0235,0.0234,0.0219,0.017,0.017,0.0171,0.0208,0.0211,0.0214,0,0,0,0,0,0.0286,0.0287,0.0293,0.0287,0.0286,0.0286,0.0294,0.0295,0.0301,0.0273,0.0271,0.0304,0.0258,0.0251,0.0238,0.0238,0.0224,0.0221,0.017,0.017,0.0171,0.021,0,0,0,0,0,0,0.0285,0.0288,0.0292,0.0291,0.0292,0.0286,0.0288,0.0295,0.0277,0.0274,0.0297,0.0298,0.0258,0.0252,0.0247,0.0242,0.0228,0.0225,0.0224,0.017,0.0171,0.0171,0,0,0,0,0,0,0.0287,0.0287,0.0292,0.0299,0.0299,0.0286,0.0288,0.0258,0.0276,0.0302,0.0303,0.0298,0.0254,0.0253,0.0249,0.0204,0.0231,0.0228,0.0227,0.0226,0.017,0.0171,0,0,0,0,0,0,0.0287,0.0287,0.0299,0.0299,0.0299,0.0291,0.0259,0.0255,0.03,0.0302,0.0301,0.0302,0.0254,0.025,0.025,0.0207,0.0204,0.0231,0.0229,0.0228,0.0227,0,0,0,0,0,0,0,0.0287,0.0288,0.0295,0.03,0.03,0.0282,0.0282,0.0282,0.03,0.0301,0.0301,0.0302,0.0246,0.0243,0.024,0.021,0,0,0.0231,0.023,0,0,0,0,0,0,0,0,0.0287,0.0288,0.0295,0.0294,0.0294,0.0282,0.0282,0.0282,0.03,0.0301,0.0301,0.0302,0.0245,0.0243,0.024,0,0,0,0,0,0,0,0,0,0,0,0,0,0,0,0.0295,0.0294,0,0.0282,0.0282,0.0282,0.03,0.0301,0.0301,0.0301,0.0244,0.0242,0.024,0,0,0,0,0,0,0,0,0,0,0,0,0,0,0,0,0,0,0,0,0,0,0,0,0,0,0,0,0,0,0,0,0,0,0,0,0,0,0,0,0,0,0,0,0,0,0,0,0,0,0,0,0,0,0,0,0,0,0,0,0,0,0,0,0,0,0,0,0]}]]]